| time (UTC) | temp C | wind direction | speed KPH | gust KPH | rain 1hr cm | rain 24hr cm | rain mn cm | humidity % | barometer mb |
| 20260503195728 | 29 | 63 | 3.2 | 3.2 | 0.00 | 0.00 | 0.00 | 38 | 1003.7 |
| 20260503195227 | 29 | 324 | 3.2 | 4.8 | 0.00 | 0.00 | 0.00 | 40 | 1004.1 |
| 20260503194726 | 28 | 153 | 3.2 | 6.4 | 0.00 | 0.00 | 0.00 | 40 | 1003.7 |
| 20260503194225 | 28 | 252 | 1.6 | 3.2 | 0.00 | 0.00 | 0.00 | 41 | 1004.1 |
| 20260503193724 | 28 | 351 | 3.2 | 8.0 | 0.00 | 0.00 | 0.00 | 41 | 1004.1 |
| 20260503193221 | 27 | 297 | 4.8 | 6.4 | 0.00 | 0.00 | 0.00 | 43 | 1004.1 |
| 20260503192720 | 27 | 216 | 3.2 | 6.4 | 0.00 | 0.00 | 0.00 | 43 | 1004.4 |
| 20260503192219 | 27 | 0 | 3.2 | 3.2 | 0.00 | 0.00 | 0.00 | 41 | 1004.4 |
| 20260503191718 | 27 | 99 | 3.2 | 4.8 | 0.00 | 0.00 | 0.00 | 42 | 1004.4 |
| 20260503191217 | 27 | 234 | 4.8 | 4.8 | 0.00 | 0.00 | 0.00 | 44 | 1004.4 |
| 20260503190715 | 27 | 162 | 3.2 | 3.2 | 0.00 | 0.00 | 0.00 | 44 | 1004.4 |
| 20260503190214 | 26 | 225 | 3.2 | 3.2 | 0.00 | 0.00 | 0.00 | 44 | 1004.4 |
| 20260503185713 | 27 | 27 | 1.6 | 4.8 | 0.00 | 0.00 | 0.00 | 44 | 1004.7 |
| 20260503184710 | 26 | 342 | 1.6 | 3.2 | 0.00 | 0.00 | 0.00 | 45 | 1004.7 |
| 20260503184209 | 26 | 342 | 1.6 | 6.4 | 0.00 | 0.00 | 0.00 | 44 | 1004.7 |
| 20260503183708 | 25 | 288 | 3.2 | 3.2 | 0.00 | 0.00 | 0.00 | 45 | 1004.7 |
| 20260503183206 | 25 | 72 | 3.2 | 3.2 | 0.00 | 0.00 | 0.00 | 45 | 1005.1 |
| 20260503182705 | 25 | 252 | 4.8 | 6.4 | 0.00 | 0.00 | 0.00 | 46 | 1005.1 |
| 20260503182204 | 25 | 9 | 3.2 | 6.4 | 0.00 | 0.00 | 0.00 | 47 | 1005.1 |
| 20260503181703 | 25 | 198 | 3.2 | 8.0 | 0.00 | 0.00 | 0.00 | 46 | 1005.1 |
| 20260503181202 | 25 | 54 | 3.2 | 6.4 | 0.00 | 0.00 | 0.00 | 48 | 1005.1 |
| 20260503180701 | 25 | 243 | 1.6 | 3.2 | 0.00 | 0.00 | 0.00 | 49 | 1005.1 |
| 20260503180200 | 24 | 144 | 3.2 | 3.2 | 0.00 | 0.00 | 0.00 | 49 | 1005.1 |
| 20260503175658 | 24 | 207 | 3.2 | 6.4 | 0.00 | 0.00 | 0.00 | 50 | 1005.4 |
| 20260503175157 | 23 | 333 | 3.2 | 6.4 | 0.00 | 0.00 | 0.00 | 49 | 1005.4 |
| 20260503174656 | 23 | 18 | 3.2 | 11.3 | 0.00 | 0.00 | 0.00 | 51 | 1005.8 |
| 20260503174155 | 23 | 153 | 3.2 | 3.2 | 0.00 | 0.00 | 0.00 | 52 | 1005.8 |
| 20260503173653 | 23 | 351 | 1.6 | 4.8 | 0.00 | 0.00 | 0.00 | 52 | 1005.8 |
| 20260503173152 | 23 | 72 | 3.2 | 6.4 | 0.00 | 0.00 | 0.00 | 51 | 1005.4 |
| 20260503172651 | 23 | 18 | 1.6 | 3.2 | 0.00 | 0.00 | 0.00 | 54 | 1005.4 |
| 20260503172150 | 23 | 54 | 3.2 | 4.8 | 0.00 | 0.00 | 0.00 | 54 | 1005.8 |
| 20260503171649 | 22 | 135 | 1.6 | 3.2 | 0.00 | 0.00 | 0.00 | 57 | 1005.8 |
| 20260503171147 | 22 | 279 | 3.2 | 6.4 | 0.00 | 0.00 | 0.00 | 57 | 1005.8 |
| 20260503170646 | 22 | 234 | 3.2 | 6.4 | 0.00 | 0.00 | 0.00 | 55 | 1005.8 |
| 20260503170145 | 22 | 108 | 3.2 | 3.2 | 0.00 | 0.00 | 0.00 | 56 | 1005.8 |
| 20260503160130 | 19 | 54 | 1.6 | 3.2 | 0.00 | 0.00 | 0.00 | 67 | 1006.1 |
| 20260503150617 | 16 | 306 | 1.6 | 1.6 | 0.00 | 0.00 | 0.00 | 79 | 1006.4 |
| 20260503150116 | 16 | 315 | 1.6 | 1.6 | 0.00 | 0.00 | 0.00 | 79 | 1006.4 |
| 20260503131049 | 11 | 63 | 0.0 | 0.0 | 0.00 | 0.00 | 0.00 | 92 | 1005.8 |
| 20260503130547 | 11 | 198 | 0.0 | 0.0 | 0.00 | 0.00 | 0.00 | 92 | 1005.8 |
| 20260503110518 | 11 | 144 | 0.0 | 0.0 | 0.00 | 0.00 | 0.00 | 91 | 1006.1 |
| 20260503090443 | 12 | 9 | 0.0 | 1.6 | 0.00 | 0.00 | 0.00 | 89 | 1006.4 |
| 20260503081430 | 13 | 36 | 0.0 | 0.0 | 0.00 | 0.00 | 0.00 | 86 | 1006.4 |
| 20260503080929 | 13 | 198 | 0.0 | 0.0 | 0.00 | 0.00 | 0.00 | 86 | 1006.4 |
| 20260503080428 | 13 | 306 | 0.0 | 0.0 | 0.00 | 0.00 | 0.00 | 87 | 1006.4 |
| 20260503072920 | 13 | 99 | 0.0 | 0.0 | 0.00 | 0.00 | 0.00 | 86 | 1006.4 |
| 20260503072418 | 13 | 81 | 0.0 | 0.0 | 0.00 | 0.00 | 0.00 | 85 | 1006.4 |
| 20260503071917 | 13 | 99 | 0.0 | 0.0 | 0.00 | 0.00 | 0.00 | 85 | 1006.4 |
| 20260503071416 | 13 | 315 | 0.0 | 0.0 | 0.00 | 0.00 | 0.00 | 85 | 1006.4 |
| 20260503070915 | 14 | 234 | 0.0 | 0.0 | 0.00 | 0.00 | 0.00 | 85 | 1006.8 |
| 20260503070413 | 14 | 36 | 0.0 | 0.0 | 0.00 | 0.00 | 0.00 | 84 | 1006.4 |
| 20260503054855 | 16 | 225 | 0.0 | 0.0 | 0.00 | 0.00 | 0.00 | 78 | 1006.4 |
| 20260503054354 | 16 | 261 | 0.0 | 1.6 | 0.00 | 0.00 | 0.00 | 78 | 1006.4 |
| 20260503053853 | 16 | 216 | 0.0 | 0.0 | 0.00 | 0.00 | 0.00 | 77 | 1006.4 |
| 20260503053352 | 16 | 36 | 0.0 | 3.2 | 0.00 | 0.00 | 0.00 | 77 | 1006.4 |
| 20260503052851 | 16 | 126 | 0.0 | 1.6 | 0.00 | 0.00 | 0.00 | 77 | 1006.4 |
| 20260503052349 | 16 | 27 | 1.6 | 1.6 | 0.00 | 0.00 | 0.00 | 77 | 1006.4 |
| 20260503051848 | 16 | 81 | 0.0 | 1.6 | 0.00 | 0.00 | 0.00 | 77 | 1006.4 |
| 20260503051347 | 16 | 270 | 0.0 | 0.0 | 0.00 | 0.00 | 0.00 | 76 | 1006.4 |
| 20260503050846 | 16 | 270 | 0.0 | 0.0 | 0.00 | 0.00 | 0.00 | 76 | 1006.4 |
| 20260503050344 | 16 | 234 | 1.6 | 3.2 | 0.00 | 0.00 | 0.00 | 76 | 1006.1 |
| 20260503045843 | 16 | 171 | 0.0 | 1.6 | 0.00 | 0.00 | 0.00 | 76 | 1006.1 |
| 20260503045342 | 16 | 63 | 1.6 | 3.2 | 0.00 | 0.00 | 0.00 | 75 | 1006.1 |
| 20260503044841 | 16 | 27 | 1.6 | 3.2 | 0.00 | 0.00 | 0.00 | 75 | 1006.8 |
| 20260503043838 | 16 | 333 | 0.0 | 1.6 | 0.00 | 0.00 | 0.00 | 75 | 1006.4 |
| 20260503043337 | 16 | 72 | 1.6 | 3.2 | 0.00 | 0.00 | 0.00 | 76 | 1006.4 |
| 20260503042836 | 16 | 261 | 0.0 | 0.0 | 0.00 | 0.00 | 0.00 | 76 | 1006.4 |
| 20260503042335 | 16 | 135 | 0.0 | 1.6 | 0.00 | 0.00 | 0.00 | 75 | 1006.4 |
| 20260503041834 | 16 | 153 | 0.0 | 1.6 | 0.00 | 0.00 | 0.00 | 75 | 1006.4 |
| 20260503041332 | 16 | 189 | 0.0 | 0.0 | 0.00 | 0.00 | 0.00 | 75 | 1006.4 |
| 20260503040831 | 17 | 216 | 0.0 | 1.6 | 0.00 | 0.00 | 0.00 | 74 | 1006.1 |
| 20260503040330 | 17 | 54 | 1.6 | 1.6 | 0.00 | 0.00 | 0.00 | 74 | 1006.1 |
| 20260503035829 | 17 | 135 | 0.0 | 0.0 | 0.00 | 0.00 | 0.00 | 73 | 1006.4 |
| 20260503035327 | 17 | 144 | 1.6 | 1.6 | 0.00 | 0.00 | 0.00 | 72 | 1006.4 |
| 20260503034826 | 17 | 27 | 0.0 | 0.0 | 0.00 | 0.00 | 0.00 | 72 | 1006.4 |
| 20260503034325 | 17 | 90 | 0.0 | 1.6 | 0.00 | 0.00 | 0.00 | 71 | 1006.4 |
| 20260503033824 | 17 | 198 | 0.0 | 3.2 | 0.00 | 0.00 | 0.00 | 71 | 1006.4 |
| 20260503033323 | 17 | 216 | 0.0 | 0.0 | 0.00 | 0.00 | 0.00 | 71 | 1006.4 |
| 20260503032821 | 17 | 207 | 3.2 | 4.8 | 0.00 | 0.00 | 0.00 | 71 | 1006.1 |
| 20260503032320 | 17 | 99 | 0.0 | 1.6 | 0.00 | 0.00 | 0.00 | 70 | 1006.1 |
| 20260503031819 | 17 | 117 | 3.2 | 4.8 | 0.00 | 0.00 | 0.00 | 70 | 1006.1 |
| 20260503031317 | 18 | 252 | 1.6 | 0.0 | 0.00 | 0.00 | 0.00 | 70 | 1005.8 |
| 20260503030816 | 18 | 270 | 0.0 | 0.0 | 0.00 | 0.00 | 0.00 | 69 | 1006.1 |
| 20260503030315 | 18 | 63 | 0.0 | 0.0 | 0.00 | 0.00 | 0.00 | 69 | 1006.1 |
| 20260503025814 | 18 | 90 | 0.0 | 1.6 | 0.00 | 0.00 | 0.00 | 68 | 1005.8 |
| 20260503025313 | 18 | 144 | 0.0 | 1.6 | 0.00 | 0.00 | 0.00 | 68 | 1006.1 |
| 20260503024812 | 18 | 81 | 0.0 | 1.6 | 0.00 | 0.00 | 0.00 | 67 | 1006.4 |
| 20260503024310 | 18 | 36 | 0.0 | 0.0 | 0.00 | 0.00 | 0.00 | 67 | 1006.1 |
| 20260503023809 | 18 | 45 | 0.0 | 0.0 | 0.00 | 0.00 | 0.00 | 67 | 1006.4 |
| 20260503023308 | 18 | 72 | 3.2 | 1.6 | 0.00 | 0.00 | 0.00 | 67 | 1006.4 |
| 20260503022807 | 18 | 27 | 1.6 | 11.3 | 0.00 | 0.00 | 0.00 | 66 | 1006.4 |
| 20260503022305 | 18 | 342 | 1.6 | 6.4 | 0.00 | 0.00 | 0.00 | 66 | 1006.4 |
| 20260503021804 | 18 | 153 | 1.6 | 4.8 | 0.00 | 0.00 | 0.00 | 66 | 1006.1 |
| 20260503021303 | 18 | 0 | 4.8 | 11.3 | 0.00 | 0.00 | 0.00 | 66 | 1006.1 |
| 20260503020802 | 19 | 198 | 11.3 | 12.9 | 0.00 | 0.00 | 0.00 | 64 | 1006.4 |
| 20260503020301 | 20 | 189 | 1.6 | 3.2 | 0.00 | 0.00 | 0.00 | 62 | 1006.1 |
| 20260503015759 | 21 | 99 | 1.6 | 1.6 | 0.00 | 0.00 | 0.00 | 61 | 1005.8 |
| 20260503015258 | 21 | 153 | 0.0 | 3.2 | 0.00 | 0.00 | 0.00 | 61 | 1005.8 |
| 20260503014757 | 21 | 234 | 1.6 | 3.2 | 0.00 | 0.00 | 0.00 | 60 | 1005.4 |
| 20260503014256 | 21 | 261 | 0.0 | 0.0 | 0.00 | 0.00 | 0.00 | 60 | 1005.4 |
| 20260503013754 | 21 | 135 | 0.0 | 3.2 | 0.00 | 0.00 | 0.00 | 59 | 1005.1 |
| 20260503013253 | 21 | 261 | 1.6 | 3.2 | 0.00 | 0.00 | 0.00 | 59 | 1005.4 |
| 20260503012752 | 21 | 153 | 0.0 | 1.6 | 0.00 | 0.00 | 0.00 | 58 | 1005.4 |
| 20260503012251 | 21 | 297 | 1.6 | 1.6 | 0.00 | 0.00 | 0.00 | 57 | 1005.4 |
| 20260503011749 | 21 | 180 | 0.0 | 0.0 | 0.00 | 0.00 | 0.00 | 58 | 1005.4 |
| 20260503011248 | 21 | 45 | 1.6 | 1.6 | 0.00 | 0.00 | 0.00 | 57 | 1005.1 |
| 20260503010747 | 22 | 27 | 1.6 | 1.6 | 0.00 | 0.00 | 0.00 | 56 | 1005.4 |
| 20260503010246 | 22 | 9 | 1.6 | 1.6 | 0.00 | 0.00 | 0.00 | 54 | 1005.1 |
| 20260503005744 | 22 | 54 | 1.6 | 3.2 | 0.00 | 0.00 | 0.00 | 53 | 1005.1 |
| 20260503005243 | 23 | 297 | 1.6 | 3.2 | 0.00 | 0.00 | 0.00 | 53 | 1005.1 |
| 20260503004742 | 23 | 63 | 1.6 | 3.2 | 0.00 | 0.00 | 0.00 | 54 | 1005.1 |
| 20260503004241 | 23 | 306 | 0.0 | 3.2 | 0.00 | 0.00 | 0.00 | 52 | 1005.1 |
| 20260503003740 | 22 | 144 | 0.0 | 3.2 | 0.00 | 0.00 | 0.00 | 52 | 1005.1 |
| 20260503003238 | 22 | 288 | 1.6 | 1.6 | 0.00 | 0.00 | 0.00 | 51 | 1005.1 |
| 20260503002737 | 22 | 144 | 1.6 | 4.8 | 0.00 | 0.00 | 0.00 | 52 | 1005.1 |
| 20260503002236 | 23 | 9 | 3.2 | 3.2 | 0.00 | 0.00 | 0.00 | 51 | 1005.4 |
| 20260503001735 | 23 | 225 | 1.6 | 3.2 | 0.00 | 0.00 | 0.00 | 50 | 1005.1 |
| 20260503001234 | 23 | 108 | 3.2 | 3.2 | 0.00 | 0.00 | 0.00 | 51 | 1005.1 |
| 20260503000732 | 22 | 27 | 1.6 | 3.2 | 0.00 | 0.00 | 0.00 | 52 | 1005.1 |
| 20260503000233 | 22 | 252 | 3.2 | 3.2 | 0.00 | 0.00 | 0.00 | 53 | 1005.1 |
| 20260502235730 | 22 | 81 | 6.4 | 11.3 | 0.00 | 0.00 | 0.00 | 53 | 1005.4 |
| 20260502235229 | 22 | 108 | 4.8 | 9.7 | 0.00 | 0.00 | 0.00 | 52 | 1005.1 |
| 20260502234728 | 21 | 27 | 4.8 | 9.7 | 0.00 | 0.00 | 0.00 | 53 | 1005.4 |
| 20260502234226 | 21 | 351 | 3.2 | 1.6 | 0.00 | 0.00 | 0.00 | 52 | 1005.4 |
| 20260502233725 | 22 | 153 | 1.6 | 3.2 | 0.00 | 0.00 | 0.00 | 53 | 1005.4 |
| 20260502233224 | 21 | 198 | 3.2 | 6.4 | 0.00 | 0.00 | 0.00 | 53 | 1005.8 |
| 20260502232723 | 22 | 216 | 4.8 | 9.7 | 0.00 | 0.00 | 0.00 | 53 | 1005.8 |
| 20260502232222 | 21 | 81 | 4.8 | 6.4 | 0.00 | 0.00 | 0.00 | 53 | 1005.8 |
| 20260502231720 | 22 | 351 | 1.6 | 3.2 | 0.00 | 0.00 | 0.00 | 52 | 1005.8 |
| 20260502231219 | 22 | 135 | 1.6 | 9.7 | 0.00 | 0.00 | 0.00 | 52 | 1005.8 |
| 20260502230718 | 21 | 333 | 1.6 | 3.2 | 0.00 | 0.00 | 0.00 | 55 | 1005.8 |
| 20260502230217 | 21 | 171 | 3.2 | 6.4 | 0.00 | 0.00 | 0.00 | 53 | 1005.8 |
| 20260502225716 | 21 | 162 | 3.2 | 3.2 | 0.00 | 0.00 | 0.00 | 55 | 1005.8 |
| 20260502225214 | 21 | 234 | 1.6 | 4.8 | 0.00 | 0.00 | 0.00 | 55 | 1006.1 |
| 20260502224713 | 21 | 342 | 1.6 | 3.2 | 0.00 | 0.00 | 0.00 | 53 | 1006.4 |
| 20260502224212 | 21 | 108 | 3.2 | 6.4 | 0.00 | 0.00 | 0.00 | 55 | 1006.4 |
| 20260502223711 | 21 | 297 | 1.6 | 6.4 | 0.00 | 0.00 | 0.00 | 56 | 1006.4 |
| 20260502223209 | 20 | 180 | 3.2 | 3.2 | 0.00 | 0.00 | 0.00 | 55 | 1006.4 |
| 20260502222708 | 20 | 288 | 4.8 | 4.8 | 0.00 | 0.00 | 0.00 | 55 | 1006.8 |
| 20260502222207 | 20 | 288 | 1.6 | 1.6 | 0.00 | 0.00 | 0.00 | 57 | 1006.8 |
| 20260502221706 | 20 | 243 | 3.2 | 3.2 | 0.00 | 0.00 | 0.00 | 55 | 1006.8 |
| 20260502221205 | 20 | 234 | 1.6 | 3.2 | 0.00 | 0.00 | 0.00 | 56 | 1006.8 |
| 20260502220703 | 20 | 225 | 3.2 | 4.8 | 0.00 | 0.00 | 0.00 | 57 | 1006.8 |
| 20260502220202 | 20 | 81 | 3.2 | 6.4 | 0.00 | 0.00 | 0.00 | 57 | 1006.8 |
| 20260502215701 | 20 | 90 | 3.2 | 6.4 | 0.00 | 0.00 | 0.00 | 55 | 1007.1 |
| 20260502215200 | 20 | 315 | 4.8 | 6.4 | 0.00 | 0.00 | 0.00 | 55 | 1007.1 |
| 20260502214658 | 19 | 54 | 3.2 | 1.6 | 0.00 | 0.00 | 0.00 | 58 | 1007.1 |
| 20260502214157 | 20 | 171 | 1.6 | 6.4 | 0.00 | 0.00 | 0.00 | 58 | 1007.1 |
| 20260502213656 | 19 | 63 | 1.6 | 3.2 | 0.00 | 0.00 | 0.00 | 60 | 1007.5 |
| 20260502213155 | 18 | 216 | 1.6 | 0.0 | 0.00 | 0.00 | 0.00 | 60 | 1007.5 |
| 20260502212654 | 20 | 18 | 3.2 | 4.8 | 0.00 | 0.00 | 0.00 | 56 | 1007.5 |
| 20260502212152 | 20 | 324 | 0.0 | 1.6 | 0.00 | 0.00 | 0.00 | 55 | 1007.5 |
| 20260502211651 | 19 | 36 | 3.2 | 1.6 | 0.00 | 0.00 | 0.00 | 58 | 1007.8 |
| 20260502211150 | 18 | 162 | 1.6 | 3.2 | 0.00 | 0.00 | 0.00 | 58 | 1007.8 |
| 20260502210648 | 19 | 189 | 3.2 | 4.8 | 0.00 | 0.00 | 0.00 | 59 | 1007.5 |
| 20260502210147 | 18 | 315 | 3.2 | 6.4 | 0.00 | 0.00 | 0.00 | 59 | 1007.8 |
| 20260502205646 | 18 | 99 | 1.6 | 1.6 | 0.00 | 0.00 | 0.00 | 60 | 1007.8 |
| 20260502205145 | 18 | 171 | 4.8 | 6.4 | 0.00 | 0.00 | 0.00 | 60 | 1008.1 |
| 20260502204644 | 17 | 297 | 1.6 | 3.2 | 0.00 | 0.00 | 0.00 | 63 | 1008.5 |
| 20260502204143 | 18 | 225 | 1.6 | 3.2 | 0.00 | 0.00 | 0.00 | 60 | 1008.5 |
| 20260502203642 | 18 | 135 | 3.2 | 3.2 | 0.00 | 0.00 | 0.00 | 60 | 1008.5 |
| 20260502203140 | 17 | 117 | 3.2 | 3.2 | 0.00 | 0.00 | 0.00 | 61 | 1008.5 |
| 20260502202639 | 17 | 54 | 4.8 | 6.4 | 0.00 | 0.00 | 0.00 | 62 | 1008.5 |
| 20260502202138 | 18 | 270 | 3.2 | 4.8 | 0.00 | 0.00 | 0.00 | 60 | 1008.5 |
| 20260502201636 | 18 | 351 | 1.6 | 3.2 | 0.00 | 0.00 | 0.00 | 61 | 1008.5 |
| 20260502201135 | 17 | 324 | 1.6 | 1.6 | 0.00 | 0.00 | 0.00 | 63 | 1008.8 |
| 20260502200634 | 16 | 324 | 1.6 | 4.8 | 0.00 | 0.00 | 0.00 | 63 | 1008.8 |
| 20260502200133 | 16 | 27 | 3.2 | 6.4 | 0.00 | 0.00 | 0.00 | 64 | 1008.8 |